Home   Weather   Estonia   Tallinn   Past weeks
Flag for Estonia

Past Weather in Tallinn, Estonia — Yesterday and Last 2 Weeks

Currently: 34 °F. Low clouds. (Weather station: Tallinn, Estonia). See more current weather

Past Weather in Tallinn — Graph

°F

Tallinn Temperature Yesterday

Maximum temperature yesterday: 39 °F (at 2:50 pm)
Minimum temperature yesterday: 32 °F (at 1:20 am)
Average temperature yesterday: 35 °F

High & Low Weather Summary for the Past Weeks

 TemperatureHumidityPressure
High43 °F (Feb 24, 8:50 pm)100% (Feb 14, 4:50 am)30.36 "Hg (Feb 14, 4:50 am)
Low21 °F (Feb 11, 10:20 pm)60% (Feb 18, 4:20 pm)29.39 "Hg (Feb 23, 11:20 am)
Average32 °F90%29.89 "Hg
* Reported Feb 11 10:20 pm — Feb 26 10:50 pm, Tallinn. Weather by CustomWeather, © 2024

Note: Actual official high and low records may vary slightly from our data, if they occured in-between our weather recording intervals... More about our weather records

Tallinn Weather History for the Previous 24 Hours

Scroll right to see more
 ConditionsComfort  
Time TempWeatherWind HumidityBarometerVisibility
10:50 pm
Mon, Feb 26
34 °FLow clouds.6 mph100%29.95 "HgN/A
10:20 pm34 °FMostly cloudy.7 mph100%29.95 "HgN/A
9:50 pm34 °FLow clouds.8 mph100%29.92 "HgN/A
9:20 pm34 °FLow clouds.9 mph100%29.92 "HgN/A
8:50 pm36 °FSleet. Overcast.8 mph100%29.92 "Hg3 mi
8:20 pm36 °FFog.5 mph100%29.89 "Hg0 mi
7:50 pm37 °FFog.7 mph100%29.89 "Hg0 mi
7:20 pm37 °FFog.7 mph100%29.89 "Hg0 mi
6:50 pm37 °FMostly cloudy.6 mph100%29.89 "Hg1 mi
6:20 pm37 °FLow clouds.5 mph100%29.86 "HgN/A
5:50 pm37 °FOvercast.6 mph100%29.86 "Hg5 mi
5:20 pm39 °FSleet. Fog.6 mph100%29.83 "Hg4 mi
4:50 pm39 °FLow clouds.6 mph100%29.83 "Hg4 mi
4:20 pm39 °FFog.6 mph100%29.83 "Hg1 mi
3:50 pm39 °FFog.6 mph100%29.83 "Hg1 mi
3:20 pm39 °FFog.5 mph100%29.83 "Hg1 mi
2:50 pm39 °FFog.3 mph100%29.83 "Hg1 mi
2:20 pm37 °FDrizzle. Fog.5 mph100%29.83 "Hg1 mi
1:50 pm37 °FDrizzle. Fog.5 mph100%29.83 "Hg2 mi
1:20 pm37 °FLow clouds.6 mph100%29.83 "Hg4 mi
12:50 pm37 °FLow clouds.6 mph100%29.80 "Hg5 mi
12:20 pm37 °FLight rain. Fog.6 mph100%29.80 "Hg2 mi
11:50 am36 °FLight rain. Fog.8 mph100%29.83 "Hg2 mi
11:20 am36 °FLight rain. Fog.8 mph100%29.80 "Hg1 mi
10:50 am36 °FLight rain. Fog.8 mph100%29.83 "Hg1 mi
10:20 am36 °FLight rain. Fog.8 mph100%29.83 "Hg1 mi
9:50 am34 °FLight rain. Fog.8 mph100%29.83 "Hg1 mi
9:20 am34 °FLight rain. Fog.8 mph100%29.83 "Hg1 mi
8:50 am34 °FFog.8 mph100%29.83 "Hg1 mi
8:20 am34 °FFog.7 mph100%29.83 "Hg1 mi
7:50 am34 °FFog.8 mph100%29.83 "Hg1 mi
7:20 am34 °FFog.8 mph100%29.83 "Hg1 mi
6:50 am34 °FFog.8 mph100%29.83 "Hg1 mi
6:20 am34 °FFog.8 mph100%29.83 "Hg1 mi
5:50 am34 °FFog.7 mph100%29.86 "Hg1 mi
5:20 am34 °FFog.6 mph100%29.86 "Hg1 mi
4:50 am32 °FFog.6 mph100%29.86 "Hg0 mi
4:20 am32 °FFog.6 mph100%29.86 "Hg0 mi
3:50 am32 °FFog.3 mph100%29.86 "Hg0 mi
3:20 am32 °FFog.5 mph100%29.86 "Hg0 mi
2:50 am32 °FFog.5 mph100%29.89 "Hg0 mi
1:20 am32 °FClear.3 mph100%29.89 "Hg10 mi
12:50 am34 °FClear.3 mph93%29.89 "Hg10 mi
12:20 am34 °FClear.5 mph93%29.89 "Hg10 mi
Weather by CustomWeather, © 2024

See weather overview